Location: Kuffner-Sternwarte
(48.2130°N, 16.2960°E)
Time: 05:18:57
(UTC+02:00)

ACS3 Solar Sail - Pass Details

Date: 27 September 2024
Orbit: 963 x 1036 km, 97.4° (Epoch: 04 October)

Event Time Altitude Azimuth Distance (km) Brightness Sun altitude
Exits shadow 19:27:16 - 116° (ESE) 3,008 3.8 -8.4°
Reaches altitude 10° 19:27:49 10° 113° (ESE) 2,836 3.6 -8.5°
Maximum altitude 19:32:56 26° 60° (ENE) 1,908 2.9 -9.4°
Drops below altitude 10° 19:38:02 10° 7° (N) 2,829 4.3 -10.2°
Sets 19:40:56 0° 355° (N) 3,775 5.1 -10.7°
